Regional Weather Roundup
Issued by NWS

Home | Current Version | Previous Version | Graphics & Text | Print | Product List | Glossary On
Versions: 1 2 3 4 5 6 7 8 9 10 11 12 13 14 15 16 17 18 19 20 21 22 23 24 25 26 27 28 29 30 31 32 33 34 35 36 37 38 39 40 41 42 43 44 45 46 47 48 49 50
000
ASUS43 KLOT 260706
RWRIL

ILLINOIS REGIONAL WEATHER ROUNDUP
NATIONAL WEATHER SERVICE CHICAGO/ROMEOVILLE IL
200 AM CDT SAT JUL 26 2014

NOTE: "FAIR" INDICATES FEW OR NO CLOUDS BELOW 12,000 FEET WITH NO
SIGNIFICANT WEATHER AND/OR OBSTRUCTIONS TO VISIBILITY.

* THESE STATIONS ARE NOT UNDER NWS QUALITY CONTROL. THEY ALSO MAY NOT
  REPORT WEATHER SUCH AS PRECIPITATION OR FOG.

ILZ001-002-007-009-015-016-024-260800-
NORTHWEST ILLINOIS

CITY           SKY/WX    TMP DP  RH WIND       PRES   REMARKS
MOLINE         MOCLDY    68  62  81 SE6       29.83F
STERLING*      CLOUDY    66  61  82 SE5       29.88F
SAVANNA*       CLOUDY    67  61  79 SE5       29.87S
$$

ILZ003-004-008-010-011-017-018-260800-
NORTH CENTRAL ILLINOIS

CITY           SKY/WX    TMP DP  RH WIND       PRES   REMARKS
ROCKFORD       CLOUDY    67  59  75 S8        29.91F
FREEPORT*      CLOUDY    64  59  86 S5        29.90F
ROCHELLE*      CLOUDY    66  59  77 S5        29.89F
DE KALB*       CLOUDY    65  59  82 S7        29.90F
PERU*          CLOUDY    68  60  75 SE9       29.89F
$$

ILZ005-006-012>014-019>023-260800-
NORTHEAST ILLINOIS

CITY           SKY/WX    TMP DP  RH WIND       PRES   REMARKS
CHICAGO-OHARE  CLOUDY    70  57  63 SW9       29.89F
CHICAGO-MIDWAY CLOUDY    71  60  68 SW9G20    29.90F
AURORA         CLOUDY    68  59  73 S6        29.90F
LANSING*       CLOUDY    68  59  72 SW5       29.91F
JOLIET*        CLOUDY    68  59  72 S3        29.91F
WAUKEGAN       CLEAR     64  58  80 SW3       29.88F
DUPAGE AIRPORT CLOUDY    68  59  73 S8        29.90F
KANKAKEE*      CLOUDY    68  61  77 S9        29.92S
WHEELING       PTCLDY    69  59  70 S6        29.90F
MORRIS*        CLOUDY    69  61  74 S6        29.90F
ROMEOVILLE*    CLOUDY    68  59  71 S12       29.90F
NORTHERLY ISL    N/A     70  57  63 S9          N/A
$$

LMZ740>746-260800-
SOUTHERN LAKE MICHIGAN

STATION/POSITION SKY/WX   TEMP    WIND        PRES    VSBY  WAVE
                          AIR SEA DIR/SP/G                  HT/PER
                          (F)     (DEG/KT/KT) (MB)    (MI)  (FT/S)
SOUTHERN BUOY              63 61  180/  8/ 10 1012.4F         1
WAUKEGAN HARBOR            68     230/  6/  7   N/A
HARRISON CRIB              69     200/ 17/ 19   N/A
BURNHAM HARBOR             70     200/  7/ 11   N/A
CALUMET HARBOR             70     190/  7/ 11 1011.5F
MICHIGAN CITY              65     160/  4/  6   N/A
MICHIGAN CITY 6N           66 68  170/  6/  6   N/A           0
ST. JOSEPH                 66 66  140/  8/ 10   N/A           1/ 2
$$

ILZ025>027-034>036-040-047-049-050-058-095>099-260800-
WEST-CENTRAL ILLINOIS

CITY           SKY/WX    TMP DP  RH WIND       PRES   REMARKS
QUINCY         MOCLDY    71  65  81 S8        29.84F
GALESBURG*     PTCLDY    67  62  85 SE8       29.84F
MACOMB*        PTCLDY    66  63  90 SE7       29.86F
JACKSONVILLE*  CLOUDY    70  65  82 SE9       29.88F
PITTSFIELD*    MOCLDY    69  65  86 SE5       29.87S
$$

ILZ028>032-037-038-041>044-048-051>054-059>061-260800-
CENTRAL ILLINOIS

CITY           SKY/WX    TMP DP  RH WIND       PRES   REMARKS
PONTIAC        MOCLDY    70  63  78 SE6       29.90F
DECATUR        CLOUDY    69  62  78 S10       29.90F
PEORIA         CLOUDY    71  61  70 S12       29.86F
LACON*         MOCLDY    67  60  77 S3        29.87F
LINCOLN*       CLOUDY    69  62  79 S7        29.86F
SPRINGFIELD    CLOUDY    71  63  75 S12G18    29.89F
TAYLORVILLE    CLOUDY    66  61  82 S10       29.90F
$$

ILZ033-039-045-046-055>057-062-063-260800-
EAST-CENTRAL ILLINOIS

CITY           SKY/WX    TMP DP  RH WIND       PRES   REMARKS
CHAMPAIGN      CLOUDY    68  62  81 S10       29.92F
DANVILLE*      CLOUDY    67  61  81 S8        29.91F
RANTOUL*       PTCLDY    68  61  77 S7        29.92F
MATTOON        CLOUDY    68  61  78 S12       29.92F
PARIS*         CLOUDY    66  62  85 S6        29.94F
$$

ILZ079-100>102-260800-
SOUTHWEST ILLINOIS

CITY           SKY/WX    TMP DP  RH WIND       PRES   REMARKS
ALTON          CLEAR     66  66 100 SE8       29.91S
BELLEVILLE     CLEAR     66  65  98 E6        29.91F
CAHOKIA*       CLEAR     69  64  84 S7        29.90F
SPARTA*        CLEAR     64  63  94 SE6       29.94F
$$

ILZ064>066-069>071-074>076-080>082-084>086-088>090-092>094-260800-
SOUTH-CENTRAL ILLINOIS

CITY           SKY/WX    TMP DP  RH WIND       PRES   REMARKS
CARBONDALE     CLEAR     66  62  87 SE5       29.95F
CAIRO*         CLEAR     67  63  86 CALM      29.98S
EFFINGHAM*     CLOUDY    68  59  73 S7        29.94F
MARION         CLEAR     66  64  94 SE6       29.97F
MT. VERNON       N/A     66  59  77 S7        29.96F VSB 1/2
CENTRALIA*     CLEAR     65  61  85 SE7       29.95S
SALEM*         CLEAR     69  64  84 S8        29.95F
METROPOLIS*    CLEAR     62  61  97 CALM      29.97F FOG
$$

ILZ067-068-072-073-078-083-087-091-260800-
SOUTHEAST ILLINOIS

CITY           SKY/WX    TMP DP  RH WIND       PRES   REMARKS
LAWRENCEVILLE  CLEAR     63  60  90 S6        29.96F
FLORA*         CLEAR     64  61  91 S7        29.96F
FAIRFIELD*     CLEAR     66  64  94 S5        29.96F
HARRISBURG*    CLEAR     63  63 100 SE6       29.99F
ROBINSON*      MOCLDY    66  62  87 S7        29.96F
CARMI*         CLEAR     63  63 100 S5        29.97F
$$

ABBREVIATIONS USED IN REMARKS
   TC - TEMPERATURE IN CELSIUS
  WCI - WIND CHILL INDEX
   HX - HEAT INDEX
  VSB - VISIBILITY
$$




USA.gov is the U.S. government's official web portal to all federal, state and local government web resources and services.